• In Italy
  • List of Countries
  • For 7 days
  • Water Temperature
  • Satellite Maps
  • Weather Map
  • Weather Widgets
  • user-avatar
    Login

    Hourly Weather Pontypool

    Today, 11 December, Monday

    Time Temperature Precipitation Wind Pressure Humidity
    00:00 -3°C° 0 mm 6 mps 720 mmHg 95%
    01:00 -3°C° 0.3 mm 6 mps 721 mmHg 95%
    02:00 -3°C° 0.3 mm 7 mps 721 mmHg 94%
    03:00 -4°C° 0.3 mm 8 mps 721 mmHg 94%
    04:00 -4°C° 0.2 mm 8 mps 721 mmHg 93%
    05:00 -4°C° 0.2 mm 8 mps 722 mmHg 93%
    06:00 -4°C° 0 mm 8 mps 721 mmHg 92%
    07:00 -5°C° 0.1 mm 8 mps 722 mmHg 91%
    08:00 -5°C° 0.1 mm 8 mps 723 mmHg 90%
    09:00 -5°C° 0.1 mm 8 mps 724 mmHg 89%
    10:00 -5°C° 0 mm 8 mps 725 mmHg 88%
    11:00 -4°C° 0 mm 7 mps 726 mmHg 87%
    12:00 -3°C° 0 mm 6 mps 726 mmHg 85%
    13:00 -4°C° 0 mm 6 mps 727 mmHg 84%
    14:00 -4°C° 0 mm 5 mps 728 mmHg 84%
    15:00 -4°C° 0 mm 5 mps 728 mmHg 83%
    16:00 -3°C° 0 mm 4 mps 729 mmHg 84%
    17:00 -3°C° 0 mm 4 mps 730 mmHg 85%
    18:00 -4°C° 0 mm 3 mps 731 mmHg 86%
    19:00 -4°C° 0 mm 3 mps 732 mmHg 87%
    20:00 -4°C° 0 mm 3 mps 732 mmHg 88%
    21:00 -4°C° 0 mm 3 mps 733 mmHg 89%
    22:00 -4°C° 0 mm 3 mps 734 mmHg 89%
    23:00 -4°C° 0 mm 3 mps 735 mmHg 89%

    Tomorrow, 12 December, Tuesday

    Time Temperature Precipitation Wind Pressure Humidity
    00:00 -4°C° 0 mm 3 mps 736 mmHg 88%
    01:00 -3°C° 0 mm 2 mps 737 mmHg 88%
    02:00 -3°C° 0 mm 2 mps 737 mmHg 88%
    03:00 -3°C° 0 mm 2 mps 738 mmHg 88%
    04:00 -3°C° 0 mm 2 mps 738 mmHg 87%
    05:00 -3°C° 0 mm 2 mps 739 mmHg 87%
    06:00 -3°C° 0 mm 2 mps 740 mmHg 87%
    07:00 -3°C° 0 mm 2 mps 740 mmHg 88%
    08:00 -2°C° 0 mm 2 mps 741 mmHg 88%
    09:00 -2°C° 0 mm 2 mps 741 mmHg 89%
    10:00 -1°C° 0 mm 2 mps 741 mmHg 91%
    11:00 0°C° 0 mm 3 mps 741 mmHg 93%
    12:00 +1°C° 0 mm 3 mps 742 mmHg 95%
    13:00 +1°C° 0 mm 3 mps 742 mmHg 95%
    14:00 0°C° 0 mm 4 mps 741 mmHg 95%
    15:00 0°C° 0 mm 4 mps 741 mmHg 94%
    16:00 +1°C° 0.1 mm 4 mps 741 mmHg 94%
    17:00 +1°C° 0.1 mm 5 mps 741 mmHg 94%
    18:00 +1°C° 0.1 mm 5 mps 741 mmHg 94%
    19:00 +1°C° 0.2 mm 6 mps 740 mmHg 95%
    20:00 +2°C° 0.2 mm 7 mps 739 mmHg 95%
    21:00 +2°C° 0.2 mm 7 mps 739 mmHg 96%
    22:00 +3°C° 0.4 mm 7 mps 739 mmHg 96%
    23:00 +3°C° 0.4 mm 6 mps 738 mmHg 96%

    Day after tomorrow, 13 December, Wednesday

    Time Temperature Precipitation Wind Pressure Humidity
    00:00 +4°C° 0.4 mm 6 mps 738 mmHg 96%
    01:00 +3°C° 0 mm 6 mps 738 mmHg 95%
    02:00 +2°C° 0 mm 5 mps 737 mmHg 94%
    03:00 +2°C° 0 mm 5 mps 737 mmHg 92%
    04:00 +2°C° 0.2 mm 5 mps 737 mmHg 93%
    05:00 +2°C° 0.2 mm 5 mps 737 mmHg 93%
    06:00 +2°C° 0.2 mm 5 mps 737 mmHg 94%
    07:00 +3°C° 0.3 mm 5 mps 736 mmHg 94%
    08:00 +3°C° 0.3 mm 5 mps 736 mmHg 95%
    09:00 +3°C° 0.3 mm 6 mps 736 mmHg 95%
    10:00 +4°C° 0.6 mm 6 mps 735 mmHg 94%
    11:00 +4°C° 0.6 mm 7 mps 734 mmHg 93%
    12:00 +5°C° 0.6 mm 8 mps 734 mmHg 92%
    13:00 +4°C° 0.3 mm 8 mps 733 mmHg 88%
    14:00 +3°C° 0.3 mm 9 mps 733 mmHg 84%
    15:00 +2°C° 0.3 mm 9 mps 733 mmHg 79%
    16:00 +1°C° 0.2 mm 9 mps 733 mmHg 80%
    17:00 +1°C° 0.2 mm 9 mps 733 mmHg 80%
    18:00 0°C° 0.2 mm 9 mps 733 mmHg 80%
    19:00 0°C° 0.2 mm 9 mps 734 mmHg 78%
    20:00 -1°C° 0.2 mm 9 mps 734 mmHg 76%
    21:00 -1°C° 0.2 mm 8 mps 734 mmHg 74%
    22:00 -1°C° 0.1 mm 8 mps 734 mmHg 74%
    23:00 -1°C° 0.1 mm 8 mps 734 mmHg 75%

    14 December, Thursday

    Time Temperature Precipitation Wind Pressure Humidity
    00:00 -1°C° 0.1 mm 8 mps 735 mmHg 75%
    01:00 -1°C° 0.1 mm 8 mps 734 mmHg 76%
    02:00 -1°C° 0.1 mm 8 mps 734 mmHg 77%
    03:00 0°C° 0.1 mm 8 mps 734 mmHg 77%
    04:00 -1°C° 0.1 mm 8 mps 733 mmHg 78%
    05:00 -1°C° 0.1 mm 7 mps 733 mmHg 79%
    06:00 -1°C° 0.1 mm 7 mps 732 mmHg 80%
    07:00 -1°C° 0.2 mm 7 mps 732 mmHg 81%
    08:00 -1°C° 0.2 mm 6 mps 731 mmHg 82%
    09:00 -1°C° 0.2 mm 6 mps 731 mmHg 83%
    10:00 0°C° 0.2 mm 7 mps 731 mmHg 80%
    11:00 0°C° 0.2 mm 7 mps 730 mmHg 77%
    12:00 0°C° 0.2 mm 7 mps 730 mmHg 74%
    13:00 0°C° 0.1 mm 8 mps 730 mmHg 75%
    14:00 0°C° 0.1 mm 8 mps 730 mmHg 76%
    15:00 0°C° 0.1 mm 8 mps 729 mmHg 78%
    16:00 0°C° 0.5 mm 8 mps 729 mmHg 79%
    17:00 0°C° 0.5 mm 8 mps 729 mmHg 80%
    18:00 +1°C° 0.5 mm 8 mps 728 mmHg 81%
    19:00 +1°C° 0.4 mm 8 mps 728 mmHg 81%
    20:00 +1°C° 0.4 mm 9 mps 728 mmHg 82%
    21:00 +1°C° 0.4 mm 9 mps 727 mmHg 83%
    22:00 +1°C° 0.1 mm 8 mps 728 mmHg 83%
    23:00 0°C° 0.1 mm 8 mps 728 mmHg 83%

    15 December, Friday

    Time Temperature Precipitation Wind Pressure Humidity
    00:00 0°C° 0.1 mm 7 mps 728 mmHg 83%
    01:00 0°C° 0 mm 7 mps 728 mmHg 83%
    02:00 0°C° 0 mm 7 mps 729 mmHg 83%
    03:00 0°C° 0 mm 7 mps 729 mmHg 83%
    04:00 0°C° 0 mm 7 mps 730 mmHg 82%
    05:00 0°C° 0 mm 8 mps 730 mmHg 81%
    06:00 0°C° 0 mm 8 mps 731 mmHg 81%
    07:00 0°C° 0 mm 8 mps 732 mmHg 81%
    08:00 0°C° 0 mm 8 mps 733 mmHg 81%
    09:00 -1°C° 0 mm 8 mps 733 mmHg 81%
    10:00 0°C° 0 mm 8 mps 734 mmHg 78%
    11:00 0°C° 0 mm 7 mps 735 mmHg 76%
    12:00 +2°C° 0 mm 7 mps 736 mmHg 74%
    13:00 +2°C° 0 mm 7 mps 737 mmHg 75%
    14:00 +1°C° 0 mm 6 mps 737 mmHg 76%
    15:00 +1°C° 0 mm 5 mps 738 mmHg 77%
    16:00 0°C° 0 mm 5 mps 739 mmHg 78%
    17:00 0°C° 0 mm 4 mps 740 mmHg 79%
    18:00 -1°C° 0 mm 4 mps 740 mmHg 81%
    19:00 -1°C° 0 mm 4 mps 741 mmHg 82%
    20:00 -1°C° 0 mm 4 mps 742 mmHg 84%
    21:00 -1°C° 0 mm 4 mps 742 mmHg 86%
    22:00 -1°C° 0 mm 4 mps 743 mmHg 86%
    23:00 -1°C° 0 mm 4 mps 743 mmHg 85%

    16 December, Saturday

    Time Temperature Precipitation Wind Pressure Humidity
    00:00 -1°C° 0 mm 4 mps 743 mmHg 85%
    01:00 -1°C° 0 mm 4 mps 743 mmHg 86%
    02:00 -1°C° 0 mm 4 mps 744 mmHg 86%
    03:00 -1°C° 0 mm 4 mps 744 mmHg 87%
    04:00 -1°C° 0 mm 4 mps 744 mmHg 87%
    05:00 -2°C° 0 mm 4 mps 745 mmHg 87%
    06:00 -1°C° 0 mm 3 mps 745 mmHg 87%
    07:00 -1°C° 0 mm 3 mps 746 mmHg 86%
    08:00 -1°C° 0 mm 3 mps 746 mmHg 85%
    09:00 -1°C° 0 mm 3 mps 747 mmHg 83%
    10:00 0°C° 0 mm 3 mps 747 mmHg 80%
    11:00 0°C° 0 mm 4 mps 747 mmHg 77%
    12:00 +3°C° 0 mm 4 mps 747 mmHg 74%
    13:00 +3°C° 0 mm 4 mps 747 mmHg 76%
    14:00 +1°C° 0 mm 4 mps 747 mmHg 78%
    15:00 +1°C° 0 mm 5 mps 747 mmHg 79%
    16:00 +1°C° 0 mm 5 mps 747 mmHg 80%
    17:00 +1°C° 0 mm 5 mps 747 mmHg 80%
    18:00 0°C° 0 mm 5 mps 747 mmHg 81%
    19:00 +1°C° 0.1 mm 5 mps 747 mmHg 83%
    20:00 +1°C° 0.1 mm 5 mps 747 mmHg 85%
    21:00 +1°C° 0.1 mm 5 mps 747 mmHg 87%
    22:00 +1°C° 0.1 mm 4 mps 747 mmHg 89%
    23:00 +1°C° 0.1 mm 3 mps 747 mmHg 90%
    Show more